TimeCAT,TemperatureF,Dew PointF,Humidity,Sea Level PressureIn,VisibilityMPH,Wind Direction,Wind SpeedMPH,Gust SpeedMPH,PrecipitationIn,Events,Conditions,WindDirDegrees,DateUTC
12:00 AM,64.4,64.4,100,30.27,6.2,SE,4.6,-,N/A,,Mostly Cloudy,130,2013-03-04 22:00:00
1:00 AM,64.4,64.4,100,30.27,-9999.0,Calm,Calm,-,N/A,,Clear,0,2013-03-04 23:00:00
2:00 AM,64,64,99,,16,ESE,3.5,,,,Overcast,110,2013-03-05 00:00:00
2:00 AM,64.4,64.4,100,30.24,-9999.0,ESE,3.5,-,N/A,,Clear,110,2013-03-05 00:00:00
3:00 AM,62.6,62.6,100,30.24,-9999.0,SE,4.6,-,N/A,,Clear,130,2013-03-05 01:00:00
4:00 AM,62.6,62.6,100,30.24,-9999.0,Variable,1.2,-,N/A,,Clear,0,2013-03-05 02:00:00
5:00 AM,62.6,62.6,100,30.24,-9999.0,ESE,1.2,-,N/A,,Clear,120,2013-03-05 03:00:00
6:00 AM,62.6,62.6,100,30.24,-9999.0,Calm,Calm,-,N/A,,Clear,0,2013-03-05 04:00:00
7:00 AM,64.4,62.6,94,30.24,-9999.0,Calm,Calm,-,N/A,,Clear,0,2013-03-05 05:00:00
8:00 AM,67,64,85,,19,SE,8.1,,,,Mostly Cloudy,130,2013-03-05 06:00:00
8:00 AM,68.0,62.6,83,30.27,6.2,SE,8.1,-,N/A,,Mostly Cloudy,130,2013-03-05 06:00:00
9:00 AM,68.0,62.6,83,30.27,6.2,SE,6.9,-,N/A,,Mostly Cloudy,140,2013-03-05 07:00:00
10:00 AM,71.6,62.6,73,30.27,6.2,ESE,8.1,-,N/A,,Mostly Cloudy,110,2013-03-05 08:00:00
11:00 AM,73.4,60.8,65,30.27,6.2,East,5.8,-,N/A,,Mostly Cloudy,90,2013-03-05 09:00:00
1:00 PM,77.0,62.6,61,30.21,6.2,NNE,5.8,-,N/A,,Mostly Cloudy,20,2013-03-05 11:00:00
2:00 PM,76,63,56,,19,NNE,6.9,,,,Mostly Cloudy,20,2013-03-05 12:00:00
2:00 PM,75.2,62.6,65,30.18,6.2,NNE,6.9,-,N/A,,Mostly Cloudy,20,2013-03-05 12:00:00
3:00 PM,73.4,64.4,73,30.18,6.2,South,8.1,-,N/A,Rain,Light Rain Showers,170,2013-03-05 13:00:00
4:00 PM,69.8,66.2,88,30.15,6.2,ESE,4.6,-,N/A,Thunderstorm,Thunderstorm,110,2013-03-05 14:00:00
5:00 PM,71.6,66.2,83,30.18,6.2,East,6.9,-,N/A,Thunderstorm,Thunderstorm,80,2013-03-05 15:00:00
6:00 PM,68.0,64.4,88,30.18,6.2,SSE,6.9,-,N/A,Thunderstorm,Thunderstorm,150,2013-03-05 16:00:00
7:00 PM,66.2,64.4,94,30.21,6.2,ESE,3.5,-,N/A,,Mostly Cloudy,110,2013-03-05 17:00:00
8:00 PM,67,65,92,,19,East,5.8,,,Thunderstorm,Light Thunderstorm,80,2013-03-05 18:00:00